Regional Weather Roundup
Issued by NWS Cleveland, OH

Home | Current Version | Previous Version | Graphics & Text | Print | Product List | Glossary Off
Versions: 1 2 3 4 5 6 7 8 9 10 11 12 13 14 15 16 17 18 19 20 21 22 23 24 25 26 27 28 29 30 31 32 33 34 35 36 37 38 39 40 41 42 43 44 45 46 47 48 49 50

000
ASUS41 KCLE 290412
RWRCLE
OHIO REGIONAL WEATHER ROUNDUP
NATIONAL WEATHER SERVICE WILMINGTON, OH
1200 AM EDT MON AUG 29 2016

NOTE: "FAIR" INDICATES FEW OR NO CLOUDS BELOW 12,000 FEET WITH NO
SIGNIFICANT WEATHER AND/OR OBSTRUCTIONS TO VISIBILITY.

OHZ001>008-015>018-024>027-034-035-043-044-290500-
   NORTHWEST OHIO

CITY           SKY/WX    TMP DP  RH WIND       PRES   REMARKS
DEFIANCE       FAIR      70  66  87 CALM      30.23S
FINDLAY        FAIR      73  68  84 CALM      30.21S
TOLEDO EXPRESS FAIR      71  71 100 CALM      30.22R
TOLEDO EXEC    FAIR      73  72  96 CALM      30.22S
LIMA           FAIR      71  68  90 W3        30.24S
$$

OHZ009>014-019>023-028>033-038-089-290500-
   NORTHEAST OHIO

CITY           SKY/WX    TMP DP  RH WIND       PRES   REMARKS
CLE-HOPKINS    MOCLDY    75  68  78 CALM      30.24R
CLE-LAKEFRONT  FAIR      77  72  84 SW3       30.20R
CUY CO. ARPT   NOT AVBL
LORAIN-ELYRIA  FAIR      68  66  93 SW3       30.23R
ASHTABULA      MOCLDY    69  69 100 CALM      30.23R FOG
AKRON-CANTON   FAIR      68  64  87 NE3       30.24R
WOOSTER        FAIR      65  64  97 CALM      30.24R FOG
MANSFIELD      FAIR      72  68  87 CALM      30.23F
YOUNGSTOWN     FAIR      68  67  96 SE5       30.25R
$$

OHZ042-051>053-060>062-070>072-077>081-290500-
  SOUTHWEST OHIO

CITY           SKY/WX    TMP DP  RH WIND       PRES   REMARKS
CINC-COVINGTON CLOUDY    71  70  96 SE5       30.19F
CINC-LUNKEN    NOT AVBL
HAMILTON       LGT RAIN  72  70  93 CALM      30.19F
DAYTON         MOCLDY    71  67  87 NW7       30.21F
WRIGHT-PAT AFB MOCLDY    70  69  96 W2        30.18F
DAYTON GENERAL FAIR      72  67  84 W5        30.18F
WILMINGTON     FAIR      69  68  96 S3        30.18F
$$

OHZ036-037-039>041-045>050-054>059-063>069-073>076-082>088-290500-
  CENTRAL AND SOUTHEAST OHIO

CITY           SKY/WX    TMP DP  RH WIND       PRES   REMARKS
COLUMBUS       MOCLDY    73  69  87 E6        30.21R
OSU AIRPORT    FAIR      75  68  78 CALM      30.21R
BOLTON FIELD   FAIR      71  69  92 N3        30.21S
RICKENBACK AFB LGT RAIN  73  69  86 N6        30.21R
NEWARK         MOCLDY    72  69  90 SW5       30.22R
MARION         FAIR      74  69  85 CALM      30.23R
LANCASTER      FAIR      72  68  87 N5        30.23R
ZANESVILLE     FAIR      72  65  78 CALM      30.21S
NEW PHILLY     FAIR      69  65  86 CALM      30.24R
$$




USA.gov is the U.S. government's official web portal to all federal, state and local government web resources and services.